Simultaneous Nadir Overpasses (SNOs) Predictions

Prediction of SNOs between METOP-A and NOAA-19 Satellite Orbit:

Table of predicted SNOs for the next 14.0 days since TLE Epoch: 1/16/2021
Index Date (METOP-A) Time (METOP-A) Lat,Lon (METOP-A) SZA (METOP-A ) Date (NOAA-19) Time (NOAA-19) Lat,Lon (NOAA-19) SZA (NOAA-19 ) Distance(km) Time Diff (sec)
1 01/20/2021 18:24:10 -80.82, 96.24 79.16 01/20/2021 18:22:55 -80.83, 96.21 79.17 0.81 75
2 01/20/2021 19:14:50 80.83, -96.34 100.84 01/20/2021 19:14:00 80.82, -96.35 100.83 0.56 50
3 01/20/2021 20:05:32 -80.81, 70.76 79.19 01/20/2021 20:04:55 -80.82, 70.87 79.18 2.25 37
4 01/20/2021 20:56:12 80.82,-121.82 100.81 01/20/2021 20:56:00 80.82,-121.68 100.82 2.48 12
5 01/20/2021 21:46:53 -80.83, 45.62 79.19 01/20/2021 21:46:55 -80.82, 45.53 79.20 1.70 2
6 01/20/2021 22:37:33 80.83,-146.96 100.82 01/20/2021 22:38:00 80.82,-147.02 100.80 1.81 27
7 01/20/2021 23:28:15 -80.82, 20.14 79.22 01/20/2021 23:28:55 -80.82, 20.20 79.21 1.00 40



Historial Predications of SNOs between METOP-A and NOAA-19
